User: anonymous   Login
Location: Molino di Ancona
(43.6167°N, 13.3667°E)
Time: 00:43:05
(UTC+00:00)
Language:

NOAA 6 - Orbit

View from above orbital plane
View from above orbital plane
View from above satellite
View from above satellite

Ground track
Ground track

The orbit data is extracted from the following two-line orbital elements,

1 11416U 79057A   20047.51423480 +.00000026 +00000-0 +25680-4 0  9994
2 11416 098.6527 046.3559 0009292 249.7917 110.2268 14.33564789119668
Epoch (UTC): 16 February 2020 12:20:29
Eccentricity: 0.0009292
inclination: 98.6527°
perigee height: 773 km
apogee height: 786 km
right ascension of ascending node: 46.3559°
argument of perigee: 249.7917°
revolutions per day: 14.33564789
mean anomaly at epoch: 110.2268°
orbit number at epoch: 11966

The dashed part of the orbit path shows where the satellite is in the earth's shadow,  

DLR